TimeEDT,TemperatureF,Dew PointF,Humidity,Sea Level PressureIn,VisibilityMPH,Wind Direction,Wind SpeedMPH,Gust SpeedMPH,PrecipitationIn,Events,Conditions,WindDirDegrees,DateUTC
12:51 AM,69.1,66.0,90,30.13,10.0,WSW,4.6,-,N/A,,Clear,240,2012-10-05 04:51:00
1:51 AM,66.9,64.9,93,30.13,10.0,SW,4.6,-,N/A,,Clear,220,2012-10-05 05:51:00
2:51 AM,68.0,66.0,93,30.12,10.0,Calm,Calm,-,N/A,,Mostly Cloudy,0,2012-10-05 06:51:00
3:51 AM,68.0,66.0,93,30.12,10.0,Calm,Calm,-,N/A,,Clear,0,2012-10-05 07:51:00
4:51 AM,69.1,66.0,90,30.12,9.0,Calm,Calm,-,N/A,,Partly Cloudy,0,2012-10-05 08:51:00
5:51 AM,70.0,64.9,84,30.13,10.0,NNW,3.5,-,N/A,,Clear,330,2012-10-05 09:51:00
6:51 AM,71.1,59.0,66,30.13,10.0,North,6.9,-,N/A,,Partly Cloudy,360,2012-10-05 10:51:00
7:51 AM,72.0,60.1,66,30.14,10.0,North,4.6,-,N/A,,Clear,360,2012-10-05 11:51:00
8:51 AM,73.9,60.1,62,30.14,10.0,North,5.8,-,N/A,,Clear,10,2012-10-05 12:51:00
9:51 AM,75.9,57.9,54,30.14,10.0,NNE,6.9,-,N/A,,Clear,20,2012-10-05 13:51:00
10:51 AM,75.0,55.9,51,30.14,10.0,NNW,5.8,-,N/A,,Clear,340,2012-10-05 14:51:00
11:51 AM,77.0,57.0,50,30.13,10.0,NNW,5.8,-,N/A,,Clear,340,2012-10-05 15:51:00
12:51 PM,75.9,55.9,50,30.12,10.0,North,6.9,-,N/A,,Clear,10,2012-10-05 16:51:00
1:51 PM,77.0,55.0,47,30.09,10.0,NNE,10.4,-,N/A,,Clear,20,2012-10-05 17:51:00
2:51 PM,77.0,55.9,48,30.07,10.0,NNE,5.8,-,N/A,,Clear,30,2012-10-05 18:51:00
3:51 PM,78.1,55.9,46,30.05,10.0,Calm,Calm,-,N/A,,Clear,0,2012-10-05 19:51:00
4:51 PM,78.1,54.0,43,30.04,10.0,Calm,Calm,-,N/A,,Clear,0,2012-10-05 20:51:00
5:51 PM,77.0,53.1,43,30.03,10.0,South,3.5,-,N/A,,Clear,180,2012-10-05 21:51:00
6:51 PM,73.0,59.0,61,30.04,10.0,SSE,4.6,-,N/A,,Clear,160,2012-10-05 22:51:00
7:51 PM,70.0,59.0,68,30.04,10.0,South,4.6,-,N/A,,Clear,180,2012-10-05 23:51:00
8:51 PM,68.0,59.0,73,30.04,10.0,South,3.5,-,N/A,,Clear,190,2012-10-06 00:51:00
9:51 PM,66.9,59.0,76,30.04,10.0,SSW,3.5,-,N/A,,Clear,210,2012-10-06 01:51:00
10:51 PM,64.9,57.9,78,30.03,10.0,SSW,4.6,-,N/A,,Clear,210,2012-10-06 02:51:00
11:51 PM,64.9,59.0,81,30.02,10.0,South,4.6,-,N/A,,Clear,190,2012-10-06 03:51:00